Location: Elstree
(51.6403°N, 0.2969°W)
Time: 17:58:35
(UTC+00:00)

Terra - Pass Details

Date: 18 June 2021
Orbit: 701 x 703 km, 98.2° (Epoch: 04 August)

Event Time Altitude Azimuth Distance (km) Brightness Sun altitude
Exits shadow 22:32:20 10° 198° (SSW) 2,159 3.9 -12.4°
Maximum altitude 22:36:39 35° 264° (W) 1,137 3.0 -12.6°
Drops below altitude 10° 22:41:02 10° 330° (NNW) 2,184 5.8 -12.8°
Sets 22:43:29 0° 340° (NNW) 3,107 7.3 -13.0°
